[[{"header":{"parameterUnit":"m.s-1","parameterCategory":1,"la1":30.2991,"la2":30.254,"lo1":-89.0895,"lo2":-89.0444,"dy":0.0017,"dx":0.0017,"nx":28,"ny":28,"refTime":"2023-04-26T15:00:00:Z","depth":0,"parameterNumber":2,"parameterNumberName":"U-component_of_WINDS"},"data":[0,0,0,0,0,0,0,0,0,0,0,0,0,0,0,0,0,0,0,0,0,0,0,0,0,0,0,0,0,0,0,0,0,0,0,0,0,0,0,0,0,0,0,0,0,0,0,0,0,0,0,0,0,0,0,0,0,0,-4.4158,-4.4158,0,-4.4207,-4.4207,-4.4208,-4.4145,-4.4142,-4.414,-4.4138,-4.4185,-4.4188,-4.4192,0,0,0,0,0,0,0,0,0,0,0,0,0,-4.4008,-4.4011,-4.4158,-4.4158,-4.4159,-4.4207,-4.4207,-4.4208,-4.4145,-4.4142,-4.4139,-4.4137,-4.4184,-4.4188,-4.4192,0,0,0,0,0,0,0,0,0,0,0,0,0,-4.4067,-4.4012,-4.4158,-4.4133,-4.4132,-4.4207,-4.4207,-4.4208,-4.4146,-4.4142,-4.4139,-4.4135,-4.4183,-4.4188,-4.4193,-4.4293,0,0,-4.4208,-4.421,0,0,0,0,0,0,0,0,-4.4064,-4.4072,-4.4136,-4.4135,-4.4134,-4.4166,-4.4172,-4.4236,-4.4146,-4.414,-4.4138,-4.4134,-4.4181,-4.4186,-4.4203,-4.4295,-4.4297,-4.4209,-4.4212,-4.4214,-4.4215,0,0,0,0,0,0,0,-4.406,-4.407,-4.4177,-4.4137,-4.4136,-4.412,-4.4124,-4.4184,-4.4179,-4.414,-4.4136,-4.4143,-4.418,-4.4198,-4.4204,-4.4298,-4.4208,-4.4213,-4.4216,-4.4218,-4.4474,-4.4478,0,0,0,0,0,0,-4.4059,-4.4067,-4.4175,-4.4179,-4.4089,-4.4125,-4.413,-4.4159,-4.4179,-4.4178,-4.4146,-4.414,-4.4191,-4.4198,-4.4205,-4.4323,-4.4214,-4.4219,-4.4221,-4.447,-4.4475,-4.4479,0,0,0,0,0,0,-4.4056,-4.4069,-4.4174,-4.4122,-4.4134,-4.4131,-4.4164,-4.4162,-4.418,-4.4183,-4.4181,-4.4165,-4.4189,-4.4198,-4.4271,-4.4323,-4.4221,-4.4225,-4.4466,-4.4472,-4.4477,-4.4559,0,0,0,0,0,0,-4.4052,-4.4068,-4.4106,-4.4123,-4.4137,-4.424,-4.4168,-4.4165,-4.4189,-4.4182,-4.4201,-4.42,-4.4187,-4.4264,-4.4277,-4.4329,-4.4229,-4.4461,-4.4468,-4.4475,-4.4552,-4.4567,-4.458,0,0,0,0,0,-4.4047,-4.4127,-4.4109,-4.4122,-4.4185,-4.4243,-4.4251,-4.4234,-4.4194,-4.4232,-4.4234,-4.42,-4.4317,-4.4272,-4.4286,-4.434,-4.4458,-4.4466,-4.4475,-4.4546,-4.4564,-4.458,0,0,0,0,0,0,-4.4115,-4.4129,-4.4108,-4.4197,-4.422,-4.4232,-4.4279,-4.4254,-4.4288,-4.428,-4.4257,-4.4262,-4.434,-4.4348,-4.4298,-4.4438,-4.438,-4.4392,-4.443,-4.4447,-4.4461,-4.4457,-4.4234,0,0,0,0,0,-4.4141,-4.4188,-4.4197,-4.4274,-4.4287,-4.4282,-4.4307,-4.4292,-4.4314,-4.4323,-4.433,-4.4352,-4.4394,-4.4421,-4.446,-4.4554,-4.4556,-4.4598,-4.4612,-4.4624,-4.4633,-4.4683,-4.4701,-4.4507,-4.4507,-4.4506,0,0,-4.4194,-4.4207,-4.4238,-4.4289,-4.4304,-4.4353,-4.429,-4.4344,-4.4379,-4.4331,-4.4401,-4.4407,-4.443,-4.4515,-4.4552,-4.4523,-4.4688,-4.4634,-4.4644,-4.4647,-4.4693,-4.4712,-4.4728,-4.4512,-4.4511,-4.451,0,0,-4.4315,-4.4331,-4.4396,-4.4414,-4.4439,-4.4436,-4.4452,-4.4469,-4.4472,-4.4542,-4.4507,-4.4549,-4.4621,-4.4639,-4.4657,-4.4788,-4.4757,-4.4801,-4.4873,-4.4922,-4.4938,-4.4951,-4.4996,-4.5013,-4.4811,-4.4811,-4.4811,0,-4.4377,-4.445,-4.4433,-4.449,-4.4513,-4.4473,-4.4539,-4.4557,-4.4593,-4.461,-4.4578,-4.4668,-4.4681,-4.4768,-4.48,-4.4817,-4.4834,-4.4797,-4.4937,-4.495,-4.4962,-4.5005,-4.5022,-4.4816,-4.4816,-4.4815,-4.4815,0,-4.4524,-4.4575,-4.4625,-4.4663,-4.4692,-4.4753,-4.4745,-4.4776,-4.4761,-4.476,-4.4832,-4.4847,-4.4888,-4.4908,-4.4892,-4.4994,-4.4975,-4.4941,-4.4882,-4.4986,-4.5026,-4.5042,-4.4823,-4.4822,-4.482,-4.4819,0,0,-4.4687,-4.4716,-4.4735,-4.4751,-4.4777,-4.4816,-4.4876,-4.4917,-4.4943,-4.4971,-4.5019,-4.5083,-4.5051,-4.5072,-4.5059,-4.5102,-4.5203,-4.5062,-4.5062,-4.5086,-4.5315,-4.5339,-4.5358,-4.5185,-4.5188,-4.519,-4.5312,0,-4.4807,-4.491,-4.4898,-4.4997,-4.5043,-4.5008,-4.506,-4.5081,-4.5084,-4.5123,-4.5125,-4.5169,-4.5125,-4.5138,-4.518,-4.5182,-4.5248,-4.5174,-4.5228,-4.523,-4.5221,-4.5379,-4.5405,-4.5519,-4.5328,-4.533,-4.5332,0,-4.4959,-4.4993,-4.5097,-4.5117,-4.5136,-4.5183,-4.522,-4.5258,-4.5282,-4.528,-4.5306,-4.5285,-4.5344,-4.5287,-4.5368,-4.5317,-4.5339,-4.5345,-4.5349,-4.5351,-4.5286,-4.5384,-4.5555,-4.5571,-4.5357,-4.5355,-4.5353,0,-4.5066,-4.5138,-4.5209,-4.5224,-4.5249,-4.5283,-4.5295,-4.5316,-4.5341,-4.5374,-4.539,-4.5429,-4.545,-4.548,-4.547,-4.543,-4.5553,-4.5495,-4.5552,-4.5553,-4.5577,-4.5576,-4.5752,-4.5596,-4.5596,-4.5595,-4.5595,0,-4.5199,-4.5264,-4.5257,-4.53,-4.5372,-4.5358,-4.5428,-4.5436,-4.5455,-4.5499,-4.5471,-4.5513,-4.5499,-4.554,-4.5533,-4.56,-4.561,-4.561,-4.5607,-4.5611,-4.5611,-4.5623,-4.5614,-4.56,-4.5599,-4.5598,-4.5597,0,-4.5329,-4.5327,-4.5402,-4.5421,-4.5427,-4.5478,-4.5494,-4.5534,-4.5536,-4.5592,-4.5604,-4.5605,-4.5652,-4.5646,-4.5698,-4.5694,-4.5777,-4.5766,-4.5769,-4.5766,-4.5823,-4.5817,-4.6012,-4.6036,-4.5866,-4.5868,-4.5869,0,-4.5413,-4.5462,-4.5486,-4.5514,-4.5529,-4.5574,-4.5601,-4.559,-4.5618,-4.565,-4.5687,-4.5732,-4.5766,-4.5843,-4.5848,-4.5888,-4.5876,-4.5942,-4.5881,-4.5884,-4.5874,-4.5871,-4.5875,-4.5952,-4.5954,-4.5956,-4.5957,0,-4.5562,-4.5559,-4.5599,-4.5639,-4.5672,-4.5702,-4.573,-4.5755,-4.5746,-4.578,-4.5828,-4.5855,-4.5909,-4.5954,-4.5992,-4.6003,-4.5979,-4.5977,-4.5992,-4.5995,-4.5995,-4.5994,-4.5799,-4.5971,-4.597,-4.5969,-4.5968,-4.5968,-4.567,-4.5712,-4.5736,-4.5781,-4.5801,-4.5828,-4.5867,-4.5874,-4.5915,-4.5958,-4.5949,-4.6004,-4.6027,-4.6075,-4.6091,-4.6133,-4.6109,-4.6131,-4.6136,-4.6141,-4.6147,-4.5991,-4.614,-4.614,-4.6139,-4.6139,-4.6139,0,-4.5816,-4.583,-4.5872,-4.5913,-4.5948,-4.5925,-4.5955,-4.5986,-4.6034,-4.6058,-4.6094,-4.615,-4.6193,-4.6203,-4.6244,-4.6276,-4.6265,-4.6287,-4.6283,-4.6286,-4.6167,-4.6149,-4.6294,-4.6294,-4.6294,-4.6294,-4.6294,-4.6294,-4.5896,-4.5965,-4.5966,-4.6045,-4.6058,-4.6112,-4.6131,-4.6155,-4.6175,-4.6239,-4.6275,-4.6281,-4.63,-4.6343,-4.6381,-4.6383,-4.6399,-4.6424,-4.6421,-4.631,-4.6294,-4.6279,-4.6262,-4.6428,-4.6428,-4.6536,-4.6537,-4.6537]},{"header":{"parameterUnit":"m.s-1","parameterCategory":1,"la1":30.2991,"la2":30.254,"lo1":-89.0895,"lo2":-89.0444,"dy":0.0017,"dx":0.0017,"nx":28,"ny":28,"refTime":"2023-04-26T15:00:00:Z","depth":0,"parameterNumber":3,"parameterNumberName":"V-component_of_WINDS"},"data":[0,0,0,0,0,0,0,0,0,0,0,0,0,0,0,0,0,0,0,0,0,0,0,0,0,0,0,0,0,0,0,0,0,0,0,0,0,0,0,0,0,0,0,0,0,0,0,0,0,0,0,0,0,0,0,0,0,0,2.5258,2.5259,0,2.533,2.533,2.5331,2.5348,2.5347,2.5347,2.5346,2.5416,2.5418,2.542,0,0,0,0,0,0,0,0,0,0,0,0,0,2.5133,2.5135,2.5258,2.5259,2.526,2.533,2.5331,2.5331,2.5348,2.5347,2.5346,2.5346,2.5415,2.5417,2.542,0,0,0,0,0,0,0,0,0,0,0,0,0,2.5194,2.5136,2.5258,2.5276,2.5279,2.5329,2.5331,2.5332,2.5348,2.5347,2.5346,2.5346,2.5414,2.5417,2.5421,2.5457,0,0,2.5431,2.5433,0,0,0,0,0,0,0,0,2.5191,2.5199,2.5273,2.5275,2.5278,2.5329,2.5312,2.5373,2.5348,2.5321,2.5346,2.5345,2.5387,2.5393,2.5408,2.546,2.5463,2.5431,2.5434,2.5435,2.5436,0,0,0,0,0,0,0,2.5187,2.5196,2.5286,2.5274,2.5277,2.528,2.5288,2.5324,2.5357,2.5324,2.5325,2.5334,2.5388,2.5404,2.5409,2.5464,2.5431,2.5434,2.5437,2.5438,2.5551,2.5552,0,0,0,0,0,0,2.5179,2.5192,2.5284,2.5288,2.5232,2.5283,2.5292,2.5313,2.5357,2.5363,2.5334,2.5334,2.5399,2.5405,2.5412,2.5458,2.5435,2.5438,2.544,2.555,2.5551,2.5552,0,0,0,0,0,0,2.5177,2.5188,2.5281,2.5241,2.5253,2.5286,2.531,2.5315,2.5331,2.5365,2.5371,2.5344,2.5398,2.5407,2.5446,2.5461,2.544,2.5443,2.5549,2.555,2.5552,2.555,0,0,0,0,0,0,2.5173,2.5186,2.5201,2.5241,2.5255,2.5315,2.5311,2.5317,2.5337,2.5338,2.5376,2.5382,2.5398,2.5441,2.5449,2.5465,2.5446,2.5548,2.555,2.5551,2.5549,2.5551,2.5553,0,0,0,0,0,2.5169,2.5196,2.5202,2.5212,2.5274,2.5316,2.5324,2.5343,2.5339,2.5353,2.5375,2.538,2.5458,2.5445,2.5455,2.5471,2.5547,2.5549,2.5551,2.5548,2.5551,2.5553,0,0,0,0,0,0,2.5155,2.5202,2.5208,2.525,2.5279,2.5318,2.5337,2.5345,2.5375,2.5375,2.5397,2.5405,2.5443,2.5461,2.5446,2.5509,2.5502,2.5506,2.5496,2.5499,2.5501,2.5496,2.5449,0,0,0,0,0,2.5157,2.5188,2.5227,2.526,2.5275,2.5303,2.5322,2.5335,2.5366,2.5378,2.5402,2.5431,2.5462,2.5481,2.5511,2.5552,2.556,2.5568,2.557,2.5572,2.5575,2.5599,2.5603,2.5559,2.5559,2.5559,0,0,2.5162,2.5191,2.5209,2.5258,2.5282,2.5313,2.5313,2.5346,2.5369,2.5382,2.5421,2.5441,2.5474,2.5514,2.5533,2.553,2.5589,2.5574,2.5575,2.5578,2.5601,2.5606,2.5609,2.556,2.556,2.556,0,0,2.5185,2.5211,2.5242,2.5267,2.5304,2.5323,2.5331,2.5369,2.5383,2.5423,2.5434,2.5462,2.5514,2.5538,2.5556,2.5592,2.5598,2.5601,2.5611,2.5634,2.5638,2.5641,2.5654,2.5659,2.5604,2.5604,2.5604,0,2.5186,2.5234,2.5256,2.5289,2.5311,2.5326,2.5358,2.538,2.5424,2.5439,2.5435,2.5503,2.5526,2.5573,2.5582,2.5596,2.5605,2.5596,2.5636,2.5639,2.5642,2.5655,2.566,2.5604,2.5604,2.5604,2.5604,0,2.5233,2.5266,2.5287,2.5332,2.5356,2.5387,2.5414,2.5436,2.5447,2.5467,2.5508,2.5536,2.5573,2.5585,2.5596,2.5634,2.5631,2.5631,2.5625,2.5646,2.5659,2.5664,2.5604,2.5604,2.5604,2.5604,0,0,2.5249,2.5308,2.5315,2.5336,2.5379,2.5405,2.5438,2.5475,2.5494,2.5524,2.5552,2.5597,2.5599,2.562,2.5633,2.5653,2.5681,2.5652,2.5653,2.5656,2.5725,2.5725,2.573,2.5685,2.5686,2.5687,2.5723,0,2.5279,2.534,2.5362,2.5411,2.5443,2.5458,2.5487,2.5516,2.5536,2.5565,2.5586,2.5618,2.5616,2.563,2.565,2.5673,2.5695,2.5671,2.5711,2.5712,2.5703,2.5737,2.5736,2.5769,2.5728,2.5728,2.5729,0,2.5322,2.5355,2.5408,2.5449,2.5463,2.5488,2.5526,2.5553,2.5587,2.5599,2.5625,2.5637,2.5672,2.5663,2.5711,2.5694,2.5712,2.5726,2.5728,2.5732,2.5722,2.5743,2.5779,2.5784,2.5737,2.5736,2.5736,0,2.5329,2.5387,2.5427,2.5444,2.5493,2.551,2.5531,2.5564,2.5586,2.5618,2.5633,2.5668,2.5687,2.5713,2.5735,2.5727,2.5782,2.5774,2.5793,2.5793,2.5804,2.5803,2.5844,2.5815,2.5815,2.5814,2.5814,0,2.5361,2.5393,2.5432,2.5456,2.5493,2.5517,2.5552,2.5574,2.5604,2.5632,2.5647,2.5673,2.57,2.573,2.5747,2.5785,2.5793,2.5804,2.5808,2.5803,2.5802,2.5815,2.5814,2.5816,2.5816,2.5815,2.5815,0,2.5375,2.5403,2.5447,2.549,2.5502,2.5527,2.5563,2.5587,2.5608,2.5644,2.5654,2.5686,2.5722,2.5746,2.5792,2.5803,2.5844,2.5848,2.5834,2.5836,2.5853,2.5852,2.5905,2.5914,2.5878,2.5878,2.5878,0,2.5394,2.5419,2.5465,2.5486,2.5508,2.5541,2.5564,2.559,2.5613,2.5654,2.5673,2.5711,2.5742,2.5798,2.5825,2.586,2.5865,2.5882,2.587,2.5865,2.5866,2.5865,2.5868,2.5883,2.5883,2.5884,2.5884,0,2.5424,2.5436,2.547,2.5508,2.5536,2.5567,2.5598,2.5614,2.5645,2.567,2.5708,2.5733,2.5781,2.5817,2.5855,2.5876,2.5885,2.5887,2.5894,2.5889,2.588,2.5886,2.5839,2.5886,2.5886,2.5885,2.5885,2.5885,2.5441,2.5465,2.5502,2.5539,2.5566,2.5595,2.5621,2.5645,2.5678,2.572,2.5733,2.5772,2.5806,2.5858,2.5879,2.591,2.5909,2.5917,2.592,2.5922,2.5922,2.5875,2.5917,2.5917,2.5917,2.5917,2.5917,0,2.5473,2.5498,2.5532,2.5576,2.5605,2.5613,2.5648,2.5672,2.5707,2.5739,2.577,2.5814,2.585,2.5881,2.5918,2.5937,2.5942,2.5946,2.5945,2.595,2.5921,2.5912,2.5941,2.5941,2.5941,2.5941,2.5941,2.5941,2.5493,2.5534,2.5551,2.5606,2.5631,2.5671,2.5691,2.5718,2.5743,2.5792,2.5823,2.5843,2.5875,2.5915,2.5948,2.5956,2.5969,2.5972,2.5981,2.5954,2.5951,2.5949,2.5941,2.5975,2.5975,2.6007,2.6008,2.6008]}]]